Dover, New Jersey
Current Conditions -  °F | °C
As of 1:45 PM on Thursday 27 Nov 2014 (Local Time) from KMMU Reporting Station
Overcast Overcast  
Wind Chill: 34°   Ceiling: 1600
Heat Index: 37°   Visibility: 10mi
Dew Point: 30°   Wind: 5mph
Humidity: 75%   Direction: 310°NW
Pressure: 29.99"   Gusts: NA
Location:  40.89°N, 74.56°W
Report Text: KMMU 271845Z 31004KT 10SM OVC016 03/M01 A2999
Loading
Personal Weather Stations






























Interactive Weather Map New forecast layout! Learn more

10-Day Weather Forecast

Advertisements
Track Severe Weather on mobile